Volver al catálogo

FREGAT DEB

ActivoUNKNOWN
NORAD 45974·DEBRIS·🇷🇺 Russia

Lanzado Jul 18, 2011 desde Baikonur Cosmodrome

Loading…

Próximos Pases (próximas 24 horas)

TLE

ActualizadoSource: Space-Track

Época: Sep 14, 2026, 02:40 UTC

1 45974U 11037GF  26257.11152773  .00000456  00000-0  61963-3 0  9993
2 45974  51.4718 283.4169 2162016  31.0999 340.1415 10.29125444230240

Sigue FREGAT DEB en tiempo real con AllMySat

Download on the App Store